Date String (YYYY-MM-DD hh:mm:ss) UTC,Instrument flags,absolute air pressure of the measurement (hPa),sample flow rate (lpm),inlet stack bypass flow (lpm),air temperature of the measurement (°C),ambient temperature measured by the external sensor (°C),aerosol sample conditioner tube jacket temperature (°C),OPC LED temperature (°C),internal box temperature (°C),relative humidity of the measurement (%),span deviation,mass concentration of particles derived from Lorenz-Mie calculation of OPC scattering (μg/m³),mass concentration of particles derived from Lorenz-Mie calculation of OPC scattering (μg/m³),mass concentration of particles derived from Lorenz-Mie calculation of OPC scattering (μg/m³)
DateTimeUTC,F1_M11,P_M11,Q1_M11,Q2_M11,T1_M11,T2_M11,T3_M11,T4_M11,T5_M11,U1_M11,ZSPAN_M11,X0_M11,X2_M11,X1_M11
2023-08-05 05:00:00,SystemResetWarning,0834.1,5.01,000.00,029.0,025.5,000.0,037.5,030.3,30.9,0000.0,0011.68,0004.91,0004.04
2023-08-05 05:01:00,SystemResetWarning,0834.1,5.00,000.00,029.0,025.9,000.0,037.5,030.4,30.8,0000.0,0011.48,0004.94,0004.08
2023-08-05 05:02:00,SystemResetWarning,0834.2,5.00,000.00,029.0,026.3,000.0,037.5,030.5,30.7,0000.0,0011.52,0005.01,0004.14
2023-08-05 05:03:00,SystemResetWarning,0834.3,4.99,000.00,029.0,026.7,000.0,037.5,030.6,30.8,0000.0,0011.08,0005.05,0004.19
2023-08-05 05:04:00,SystemResetWarning,0834.5,4.99,000.00,029.0,027.0,000.0,037.5,030.7,30.6,0000.0,0011.04,0005.10,0004.23
2023-08-05 05:05:00,SystemResetWarning,0834.5,5.00,000.00,029.1,027.3,000.0,037.6,030.7,30.5,0000.0,0010.92,0005.09,0004.25
2023-08-05 05:06:00,SystemResetWarning,0834.5,5.00,000.00,029.1,027.5,000.0,037.6,030.8,30.5,0000.0,0010.32,0005.05,0004.26
2023-08-05 05:07:00,SystemResetWarning,0834.3,5.01,000.00,029.1,027.7,000.0,037.6,030.9,30.6,0000.0,0010.50,0004.99,0004.26
2023-08-05 05:08:00,SystemResetWarning,0834.3,5.01,000.00,029.2,027.8,000.0,037.6,030.9,30.6,0000.0,0010.30,0004.99,0004.27
2023-08-05 05:09:00,SystemResetWarning,0834.3,5.00,000.00,029.2,028.0,000.0,037.7,031.0,30.4,0000.0,0010.54,0005.01,0004.28
2023-08-05 05:10:00,SystemResetWarning,0834.4,4.99,000.00,029.2,028.1,000.0,037.7,031.0,30.1,0000.0,0010.67,0004.97,0004.29
2023-08-05 05:11:00,SystemResetWarning,0834.4,4.99,000.00,029.3,028.2,000.0,037.7,031.0,30.1,0000.0,0011.10,0004.97,0004.29
2023-08-05 05:12:00,SystemResetWarning,0834.4,5.00,000.00,029.3,027.8,000.0,037.7,031.0,29.9,0000.0,0011.46,0005.00,0004.29
2023-08-05 05:13:00,SystemResetWarning,0834.4,5.00,000.00,029.3,025.9,000.0,037.6,030.7,29.9,0000.0,0011.85,0005.00,0004.28
2023-08-05 05:14:00,SystemResetWarning,0834.3,5.00,000.00,029.2,025.2,000.0,037.5,030.6,30.2,0000.0,0011.95,0004.98,0004.25
2023-08-05 05:15:00,SystemResetWarning,0834.4,5.00,000.00,029.1,025.4,000.0,037.5,030.4,29.9,0000.0,0011.79,0004.96,0004.23
2023-08-05 05:16:00,SystemResetWarning,0834.6,5.01,000.00,029.0,025.7,000.0,037.5,030.4,29.8,0000.0,0012.15,0004.98,0004.23
2023-08-05 05:17:00,SystemResetWarning,0834.5,5.00,000.00,029.0,026.1,000.0,037.5,030.5,29.9,0000.0,0011.88,0004.98,0004.21
2023-08-05 05:18:00,SystemResetWarning,0834.5,5.00,000.00,029.0,026.5,000.0,037.6,030.6,30.1,0000.0,0011.50,0004.98,0004.20
2023-08-05 05:19:00,SystemResetWarning,0834.4,5.00,000.00,029.1,026.9,000.0,037.6,030.7,29.8,0000.0,0011.33,0004.94,0004.20
2023-08-05 05:20:00,SystemResetWarning,0834.5,5.00,000.00,029.1,027.2,000.0,037.6,030.7,31.0,0000.0,0010.86,0004.92,0004.19
2023-08-05 05:21:00,SystemResetWarning,0834.4,5.00,000.00,029.1,027.4,000.0,037.6,030.8,31.8,0000.0,0011.10,0004.90,0004.16
2023-08-05 05:22:00,SystemResetWarning,0834.4,5.00,000.00,029.1,027.6,000.0,037.6,030.9,31.4,0000.0,0010.53,0004.83,0004.12
2023-08-05 05:23:00,SystemResetWarning,0834.4,5.00,000.00,029.2,027.8,000.0,037.7,030.9,31.6,0000.0,0010.10,0004.76,0004.11
2023-08-05 05:24:00,SystemResetWarning,0834.4,5.00,000.00,029.2,027.9,000.0,037.7,030.9,29.8,0000.0,0009.51,0004.73,0004.09
2023-08-05 05:25:00,SystemResetWarning,0834.4,4.99,000.00,029.2,028.0,000.0,037.7,031.0,29.0,0000.0,0009.12,0004.71,0004.08
2023-08-05 05:26:00,SystemResetWarning,0834.5,5.00,000.00,029.3,028.1,000.0,037.7,031.0,28.7,0000.0,0009.28,0004.70,0004.06
2023-08-05 05:27:00,SystemResetWarning,0834.3,5.00,000.00,029.3,028.2,000.0,037.7,031.1,28.7,0000.0,0009.03,0004.68,0004.06
2023-08-05 05:28:00,SystemResetWarning,0834.3,4.99,000.00,029.3,026.8,000.0,037.6,030.9,28.9,0000.0,0008.91,0004.67,0004.06
2023-08-05 05:29:00,SystemResetWarning,0834.4,5.00,000.00,029.3,025.4,000.0,037.5,030.6,28.9,0000.0,0008.94,0004.69,0004.06
2023-08-05 05:30:00,SystemResetWarning,0834.2,5.00,000.00,029.2,025.3,000.0,037.5,030.4,29.1,0000.0,0009.01,0004.68,0004.06
2023-08-05 05:31:00,SystemResetWarning,0834.3,5.01,000.00,029.1,025.6,000.0,037.5,030.3,29.4,0000.0,0009.01,0004.66,0004.04
2023-08-05 05:32:00,SystemResetWarning,0834.3,4.99,000.00,029.0,026.0,000.0,037.6,030.4,29.6,0000.0,0008.57,0004.68,0004.03
2023-08-05 05:33:00,SystemResetWarning,0834.4,4.99,000.00,029.0,026.3,000.0,037.6,030.6,29.6,0000.0,0009.02,0004.72,0004.03
2023-08-05 05:34:00,SystemResetWarning,0834.3,5.00,000.00,029.0,026.7,000.0,037.6,030.6,29.7,0000.0,0009.29,0004.74,0004.02
2023-08-05 05:35:00,SystemResetWarning,0834.3,5.01,000.00,029.1,027.0,000.0,037.6,030.7,29.4,0000.0,0009.73,0004.73,0004.03
2023-08-05 05:36:00,SystemResetWarning,0834.3,5.01,000.00,029.1,027.3,000.0,037.6,030.8,29.2,0000.0,0009.91,0004.71,0004.03
2023-08-05 05:37:00,SystemResetWarning,0834.4,5.00,000.00,029.1,027.5,000.0,037.6,030.8,27.5,0000.0,0010.39,0004.69,0004.02
2023-08-05 05:38:00,SystemResetWarning,0834.3,5.00,000.00,029.1,027.7,000.0,037.7,030.9,25.7,0000.0,0010.08,0004.66,0004.00
2023-08-05 05:39:00,SystemResetWarning,0834.5,5.00,000.00,029.2,027.8,000.0,037.7,030.9,24.7,0000.0,0010.07,0004.64,0003.99
2023-08-05 05:40:00,SystemResetWarning,0834.4,5.00,000.00,029.2,028.0,000.0,037.7,031.0,24.4,0000.0,0010.06,0004.61,0003.98
2023-08-05 05:41:00,SystemResetWarning,0834.5,5.00,000.00,029.3,028.1,000.0,037.7,031.0,24.5,0000.0,0009.99,0004.60,0003.97
2023-08-05 05:42:00,SystemResetWarning,0834.5,5.00,000.00,029.3,028.2,000.0,037.8,031.0,23.6,0000.0,0009.97,0004.64,0004.02
2023-08-05 05:43:00,SystemResetWarning,0834.5,5.00,000.00,029.3,028.2,000.0,037.8,031.1,23.8,0000.0,0009.93,0004.65,0004.07
2023-08-05 05:44:00,SystemResetWarning,0834.4,4.98,000.00,029.4,027.8,000.0,037.8,031.0,23.9,0000.0,0009.68,0004.69,0004.11
2023-08-05 05:45:00,SystemResetWarning,0834.5,5.01,000.00,029.3,025.9,000.0,037.6,030.8,23.9,0000.0,0009.70,0004.72,0004.16
2023-08-05 05:46:00,SystemResetWarning,0834.4,5.01,000.00,029.3,025.2,000.0,037.5,030.5,23.9,0000.0,0009.81,0004.78,0004.14
2023-08-05 05:47:00,SystemResetWarning,0834.7,5.00,000.00,029.2,025.3,000.0,037.5,030.4,23.9,0000.0,0010.38,0004.80,0004.12
2023-08-05 05:48:00,SystemResetWarning,0834.4,5.00,000.00,029.1,025.7,000.0,037.6,030.4,23.8,0000.0,0009.93,0004.79,0004.12
2023-08-05 05:49:00,SystemResetWarning,0834.3,5.00,000.00,029.1,026.1,000.0,037.6,030.5,23.7,0000.0,0010.09,0004.84,0004.13
2023-08-05 05:50:00,SystemResetWarning,0834.2,5.00,000.00,029.1,026.5,000.0,037.6,030.6,23.7,0000.0,0010.72,0004.84,0004.13
2023-08-05 05:51:00,SystemResetWarning,0834.5,5.00,000.00,029.1,026.8,000.0,037.6,030.7,23.6,0000.0,0011.16,0004.80,0004.12
2023-08-05 05:52:00,SystemResetWarning,0834.3,4.99,000.00,029.1,027.1,000.0,037.6,030.7,23.7,0000.0,0011.22,0004.80,0004.11
2023-08-05 05:53:00,SystemResetWarning,0834.3,5.00,000.00,029.1,027.3,000.0,037.7,030.8,23.8,0000.0,0011.16,0004.74,0004.07
2023-08-05 05:54:00,SystemResetWarning,0834.3,5.00,000.00,029.1,027.5,000.0,037.7,030.8,23.6,0000.0,0011.05,0004.69,0004.02
2023-08-05 05:55:00,SystemResetWarning,0834.4,5.01,000.00,029.2,027.7,000.0,037.7,030.9,23.6,0000.0,0011.03,0004.65,0003.98
2023-08-05 05:56:00,SystemResetWarning,0834.3,5.01,000.00,029.2,027.9,000.0,037.7,030.9,23.5,0000.0,0010.95,0004.63,0003.95
2023-08-05 05:57:00,SystemResetWarning,0834.4,5.00,000.00,029.2,028.0,000.0,037.7,031.0,23.2,0000.0,0011.17,0004.58,0003.96
2023-08-05 05:58:00,SystemResetWarning,0834.4,4.99,000.00,029.3,028.1,000.0,037.7,031.0,22.7,0000.0,0010.84,0004.56,0003.96
2023-08-05 05:59:00,SystemResetWarning,0834.4,5.00,000.00,029.3,028.1,000.0,037.8,031.0,22.8,0000.0,0010.53,0004.52,0003.93
